Date String (YYYY-MM-DD hh:mm:ss) UTC,Instrument flags,Ambient pressure (hPa),Sample flow (lpm),Bypass flow (lpm),Sample temperature (°C),Ambient temperature (°C),ASC tube jacket temperature (°C),LED temperature (°C),Box temperature (°C),Sample RH (%),Span deviation,Mass concentration (μg/m³),Mass concentration (μg/m³),Mass concentration (μg/m³)
DateTimeUTC,F1_M11,P_M11,Q1_M11,Q2_M11,T1_M11,T2_M11,T3_M11,T4_M11,T5_M11,U1_M11,ZSPAN_M11,X0_M11,X2_M11,X1_M11
2023-01-14 06:00:00,,0824.5,4.99,0.00,24.7,23.4,00.0,33.6,26.6,12.2,0007.4,0016.54,0009.74,0008.81
2023-01-14 06:01:00,,0824.6,4.98,0.00,24.7,23.4,00.0,33.6,26.6,12.0,0007.4,0017.58,0010.04,0009.08
2023-01-14 06:02:00,,0824.6,4.99,0.00,24.7,23.4,00.0,33.6,26.6,11.9,0007.5,0017.86,0010.15,0009.20
2023-01-14 06:03:00,,0824.5,4.99,0.00,24.7,23.3,00.0,33.6,26.5,12.0,0007.5,0018.30,0010.21,0009.27
2023-01-14 06:04:00,,0824.5,5.01,0.00,24.7,23.3,00.0,33.6,26.6,12.0,0007.1,0018.71,0010.38,0009.42
2023-01-14 06:05:00,,0824.5,4.99,0.00,24.7,23.3,00.0,33.6,26.6,12.1,0006.5,0019.17,0010.60,0009.66
2023-01-14 06:06:00,,0824.5,5.00,0.00,24.7,23.3,00.0,33.6,26.5,12.1,0006.0,0019.26,0010.73,0009.82
2023-01-14 06:07:00,,0824.5,5.00,0.00,24.7,23.2,00.0,33.6,26.5,12.0,0005.7,0019.70,0010.73,0009.83
2023-01-14 06:08:00,,0824.5,5.01,0.00,24.7,23.2,00.0,33.6,26.5,11.8,0005.6,0019.56,0010.68,0009.76
2023-01-14 06:09:00,,0824.4,5.01,0.00,24.7,23.2,00.0,33.6,26.5,11.5,0005.1,0019.08,0010.48,0009.55
2023-01-14 06:10:00,,0824.3,5.01,0.00,24.7,23.2,00.0,33.6,26.4,11.7,0004.7,0018.00,0010.10,0009.22
2023-01-14 06:11:00,,0824.3,5.00,0.00,24.6,23.1,00.0,33.5,26.4,11.8,0005.0,0017.81,0009.82,0008.93
2023-01-14 06:12:00,,0824.3,5.00,0.00,24.6,23.0,00.0,33.5,26.4,11.9,0004.8,0017.59,0009.65,0008.69
2023-01-14 06:13:00,,0824.3,5.01,0.00,24.6,22.9,00.0,33.5,26.4,12.0,0004.8,0017.20,0009.54,0008.54
2023-01-14 06:14:00,,0824.3,5.00,0.00,24.6,22.7,00.0,33.5,26.3,12.0,0004.6,0016.87,0009.53,0008.48
2023-01-14 06:15:00,,0824.3,4.99,0.00,24.5,22.6,00.0,33.5,26.2,11.8,0004.5,0017.11,0009.48,0008.36
2023-01-14 06:16:00,,0824.2,5.02,0.00,24.5,22.5,00.0,33.5,26.2,11.8,0003.6,0016.34,0009.29,0008.13
2023-01-14 06:17:00,,0824.3,5.01,0.00,24.5,22.6,00.0,33.5,26.2,11.8,0000.0,0015.75,0009.05,0007.85
2023-01-14 06:18:00,,0824.2,5.00,0.00,24.5,22.7,00.0,33.4,26.2,11.7,0000.0,0015.17,0008.81,0007.60
2023-01-14 06:19:00,,0824.1,5.01,0.00,24.5,22.8,00.0,33.4,26.2,11.8,0000.0,0014.71,0008.59,0007.43
2023-01-14 06:20:00,,0824.1,5.00,0.00,24.5,22.9,00.0,33.4,26.3,11.9,0002.5,0014.61,0008.49,0007.37
2023-01-14 06:21:00,,0824.1,5.01,0.00,24.5,23.0,00.0,33.4,26.3,11.8,0000.0,0014.62,0008.50,0007.40
2023-01-14 06:22:00,,0824.1,5.00,0.00,24.5,22.9,00.0,33.4,26.2,12.0,0004.6,0014.09,0008.48,0007.42
2023-01-14 06:23:00,,0824.1,5.00,0.00,24.4,22.6,00.0,33.4,26.1,12.2,0006.8,0013.67,0008.46,0007.43
2023-01-14 06:24:00,,0824.0,5.00,0.00,24.4,22.6,00.0,33.4,26.1,12.2,0006.7,0013.96,0008.49,0007.49
2023-01-14 06:25:00,,0824.0,5.00,0.00,24.4,22.6,00.0,33.4,26.1,12.2,0005.9,0013.96,0008.49,0007.51
2023-01-14 06:26:00,,0824.1,5.00,0.00,24.4,22.7,00.0,33.3,26.1,12.3,0005.0,0013.68,0008.42,0007.49
2023-01-14 06:27:00,,0824.1,4.99,0.00,24.4,22.8,00.0,33.3,26.1,12.2,0006.0,0014.62,0008.40,0007.48
2023-01-14 06:28:00,,0824.1,4.99,0.00,24.4,22.9,00.0,33.3,26.2,12.2,0006.0,0015.03,0008.37,0007.46
2023-01-14 06:29:00,,0824.0,5.00,0.00,24.4,23.0,00.0,33.3,26.2,12.2,0005.2,0015.75,0008.33,0007.45
2023-01-14 06:30:00,,0824.0,5.00,0.00,24.4,23.0,00.0,33.3,26.2,12.2,0004.3,0016.65,0008.39,0007.45
2023-01-14 06:31:00,,0823.9,4.99,0.00,24.4,23.0,00.0,33.3,26.3,12.3,0003.2,0017.60,0008.49,0007.51
2023-01-14 06:32:00,,0824.0,5.00,0.00,24.4,23.1,00.0,33.3,26.3,12.3,0002.3,0018.27,0008.57,0007.56
2023-01-14 06:33:00,,0824.0,5.01,0.00,24.4,23.1,00.0,33.3,26.3,12.4,0002.1,0019.16,0008.73,0007.69
2023-01-14 06:34:00,,0824.1,5.00,0.00,24.4,23.0,00.0,33.3,26.3,12.3,0003.0,0019.55,0008.87,0007.86
2023-01-14 06:35:00,,0824.1,4.99,0.00,24.4,22.7,00.0,33.3,26.2,12.5,0002.6,0019.44,0008.85,0007.87
2023-01-14 06:36:00,,0824.0,4.99,0.00,24.4,22.6,00.0,33.3,26.1,12.7,0004.3,0019.00,0008.74,0007.81
2023-01-14 06:37:00,,0824.0,5.00,0.00,24.4,22.7,00.0,33.3,26.1,12.5,0005.5,0019.03,0008.67,0007.77
2023-01-14 06:38:00,,0824.0,4.99,0.00,24.4,22.8,00.0,33.3,26.1,12.4,0004.6,0018.14,0008.61,0007.74
2023-01-14 06:39:00,,0823.9,5.00,0.00,24.4,22.9,00.0,33.3,26.2,12.3,0003.1,0017.81,0008.65,0007.75
2023-01-14 06:40:00,,0823.7,5.00,0.00,24.4,22.9,00.0,33.3,26.2,12.3,0001.5,0017.06,0008.74,0007.84
2023-01-14 06:41:00,,0823.7,5.01,0.00,24.4,22.9,00.0,33.3,26.1,12.4,0001.4,0016.47,0008.89,0008.03
2023-01-14 06:42:00,,0823.8,4.99,0.00,24.3,22.7,00.0,33.3,26.1,12.6,0001.5,0015.59,0008.82,0008.00
2023-01-14 06:43:00,,0824.0,4.99,0.00,24.3,22.7,00.0,33.2,26.1,12.7,0002.6,0014.75,0008.66,0007.85
2023-01-14 06:44:00,,0823.9,4.98,0.00,24.3,22.7,00.0,33.2,26.1,12.9,0002.3,0013.92,0008.40,0007.62
2023-01-14 06:45:00,,0824.0,4.99,0.00,24.3,22.7,00.0,33.2,26.0,12.8,0000.6,0013.85,0008.20,0007.37
2023-01-14 06:46:00,,0823.9,5.00,0.00,24.3,22.7,00.0,33.2,26.0,12.3,0000.0,0013.90,0008.25,0007.38
2023-01-14 06:47:00,,0823.7,5.01,0.00,24.3,22.8,00.0,33.2,26.1,12.5,0002.6,0014.26,0008.52,0007.63
2023-01-14 06:48:00,,0823.7,5.00,0.00,24.3,22.8,00.0,33.2,26.1,12.8,0003.2,0014.57,0008.92,0008.00
2023-01-14 06:49:00,,0823.8,5.01,0.00,24.3,22.8,00.0,33.2,26.1,13.1,0003.0,0015.00,0009.26,0008.34
2023-01-14 06:50:00,,0823.8,5.00,0.00,24.3,22.8,00.0,33.2,26.1,13.0,0003.3,0015.15,0009.52,0008.62
2023-01-14 06:51:00,,0823.9,5.00,0.00,24.3,22.9,00.0,33.2,26.1,12.8,0004.4,0015.84,0009.75,0008.82
2023-01-14 06:52:00,,0823.9,5.02,0.00,24.3,22.9,00.0,33.2,26.0,12.9,0004.7,0015.80,0009.74,0008.79
2023-01-14 06:53:00,,0823.8,5.00,0.00,24.3,22.9,00.0,33.2,26.1,12.8,0004.4,0015.88,0009.95,0009.01
2023-01-14 06:54:00,,0823.7,5.00,0.00,24.3,22.9,00.0,33.2,26.1,13.0,0004.6,0016.25,0010.34,0009.39
2023-01-14 06:55:00,,0823.7,5.00,0.00,24.3,22.9,00.0,33.2,26.1,13.0,0004.5,0016.44,0010.76,0009.77
2023-01-14 06:56:00,,0823.8,4.98,0.00,24.3,22.7,00.0,33.2,26.0,12.8,0004.6,0016.32,0011.07,0010.09
2023-01-14 06:57:00,,0823.9,5.01,0.00,24.2,22.7,00.0,33.2,26.0,12.9,0004.6,0016.56,0011.25,0010.30
2023-01-14 06:58:00,,0824.0,5.01,0.00,24.2,22.7,00.0,33.2,25.9,13.2,0004.4,0016.82,0011.27,0010.34
2023-01-14 06:59:00,,0823.9,5.00,0.00,24.2,22.8,00.0,33.1,25.9,13.2,0004.5,0016.49,0011.14,0010.20
